Time,TemperatureF,DewpointF,PressureIn,WindDirection,WindDirectionDegrees,WindSpeedMPH,WindSpeedGustMPH,Humidity,HourlyPrecipIn,Conditions,Clouds,dailyrainin,SoftwareType,DateUTC
2013-11-21 00:00:00,41.6,38.6,30.01,SSE,155,11.0,11.0,89,0.00,,,0.00,Wunderground v.1.15,2013-11-21 06:00:00,
2013-11-21 00:05:00,41.6,38.6,30.01,SSE,155,11.0,12.0,89,0.00,,,0.00,Wunderground v.1.15,2013-11-21 06:05:00,
2013-11-21 00:11:00,41.6,38.6,30.01,SSE,154,10.0,11.0,89,0.00,,,0.00,Wunderground v.1.15,2013-11-21 06:11:00,
2013-11-21 00:16:00,41.6,38.6,30.01,SSE,154,10.0,12.0,89,0.00,,,0.00,Wunderground v.1.15,2013-11-21 06:16:00,
2013-11-21 00:21:00,41.6,38.6,30.01,SSE,154,9.0,11.0,89,0.00,,,0.00,Wunderground v.1.15,2013-11-21 06:21:00,
2013-11-21 00:27:00,41.6,38.6,30.01,SSE,153,10.0,12.0,89,0.00,,,0.00,Wunderground v.1.15,2013-11-21 06:27:00,
2013-11-21 00:33:00,41.7,38.7,30.01,SSE,154,11.0,14.0,89,0.00,,,0.00,Wunderground v.1.15,2013-11-21 06:33:00,
2013-11-21 00:39:00,41.9,38.9,30.01,SSE,157,11.0,14.0,89,0.00,,,0.00,Wunderground v.1.15,2013-11-21 06:39:00,
2013-11-21 00:45:00,42.0,39.0,30.01,SSE,159,11.0,12.0,89,0.00,,,0.00,Wunderground v.1.15,2013-11-21 06:45:00,
2013-11-21 00:51:00,42.1,38.8,30.01,SSE,156,10.0,10.0,88,0.00,,,0.00,Wunderground v.1.15,2013-11-21 06:51:00,
2013-11-21 00:57:00,42.0,39.0,30.01,SSE,157,10.0,12.0,89,0.00,,,0.00,Wunderground v.1.15,2013-11-21 06:57:00,
2013-11-21 01:03:00,42.1,39.1,30.00,SSE,167,9.0,10.0,89,0.00,,,0.00,Wunderground v.1.15,2013-11-21 07:03:00,
2013-11-21 01:08:00,42.1,39.1,30.00,SSE,157,9.0,11.0,89,0.00,,,0.00,Wunderground v.1.15,2013-11-21 07:08:00,
2013-11-21 01:14:00,42.1,39.1,30.00,SSE,161,8.0,9.0,89,0.00,,,0.00,Wunderground v.1.15,2013-11-21 07:14:00,
2013-11-21 01:20:00,42.0,39.0,30.01,SSE,162,7.0,7.0,89,0.00,,,0.00,Wunderground v.1.15,2013-11-21 07:20:00,
2013-11-21 01:26:00,42.0,39.0,30.01,SSE,159,7.0,10.0,89,0.00,,,0.00,Wunderground v.1.15,2013-11-21 07:26:00,
2013-11-21 01:32:00,42.1,39.1,30.01,SSE,161,6.0,7.0,89,0.00,,,0.00,Wunderground v.1.15,2013-11-21 07:32:00,
2013-11-21 01:38:00,42.1,39.1,30.01,SSE,160,6.0,7.0,89,0.00,,,0.00,Wunderground v.1.15,2013-11-21 07:38:00,
2013-11-21 01:44:00,42.2,39.2,30.01,SSE,161,6.0,6.0,89,0.00,,,0.00,Wunderground v.1.15,2013-11-21 07:44:00,
2013-11-21 01:50:00,42.3,39.3,30.01,SSE,159,6.0,6.0,89,0.00,,,0.00,Wunderground v.1.15,2013-11-21 07:50:00,
2013-11-21 01:56:00,42.3,39.3,30.01,SSE,159,6.0,9.0,89,0.00,,,0.00,Wunderground v.1.15,2013-11-21 07:56:00,
2013-11-21 02:01:00,42.3,39.3,30.01,SSE,159,7.0,8.0,89,0.00,,,0.00,Wunderground v.1.15,2013-11-21 08:01:00,
2013-11-21 02:06:00,42.4,39.4,30.01,SSE,159,7.0,9.0,89,0.00,,,0.00,Wunderground v.1.15,2013-11-21 08:06:00,
2013-11-21 02:11:00,42.4,39.4,30.00,SSE,159,7.0,9.0,89,0.00,,,0.00,Wunderground v.1.15,2013-11-21 08:11:00,
2013-11-21 02:17:00,42.5,39.5,30.01,SSE,157,7.0,9.0,89,0.00,,,0.00,Wunderground v.1.15,2013-11-21 08:17:00,
2013-11-21 02:22:00,42.5,39.5,30.00,SSE,158,7.0,9.0,89,0.00,,,0.00,Wunderground v.1.15,2013-11-21 08:22:00,
2013-11-21 02:28:00,42.6,39.6,30.00,SSE,158,7.0,9.0,89,0.00,,,0.00,Wunderground v.1.15,2013-11-21 08:28:00,
2013-11-21 02:34:00,42.7,39.7,30.00,SSE,158,6.0,7.0,89,0.00,,,0.00,Wunderground v.1.15,2013-11-21 08:34:00,
2013-11-21 02:40:00,42.7,39.7,30.01,SSE,158,5.0,5.0,89,0.00,,,0.00,Wunderground v.1.15,2013-11-21 08:40:00,
2013-11-21 02:46:00,42.7,39.7,30.01,SSE,158,4.0,5.0,89,0.00,,,0.00,Wunderground v.1.15,2013-11-21 08:46:00,
2013-11-21 02:52:00,42.7,39.7,30.01,SSE,158,4.0,4.0,89,0.00,,,0.00,Wunderground v.1.15,2013-11-21 08:52:00,
2013-11-21 02:58:00,42.6,39.6,30.00,SSE,158,4.0,5.0,89,0.00,,,0.00,Wunderground v.1.15,2013-11-21 08:58:00,
2013-11-21 03:04:00,42.5,39.5,30.00,SSE,158,4.0,5.0,89,0.00,,,0.00,Wunderground v.1.15,2013-11-21 09:04:00,
2013-11-21 03:09:00,42.5,39.8,30.00,SSE,158,4.0,6.0,90,0.00,,,0.00,Wunderground v.1.15,2013-11-21 09:09:00,
2013-11-21 03:15:00,42.5,39.8,30.00,SSE,158,5.0,6.0,90,0.00,,,0.00,Wunderground v.1.15,2013-11-21 09:15:00,
2013-11-21 03:20:00,42.4,39.7,30.00,SSE,158,5.0,5.0,90,0.00,,,0.00,Wunderground v.1.15,2013-11-21 09:20:00,
2013-11-21 03:26:00,42.5,39.8,30.00,SSE,158,5.0,6.0,90,0.00,,,0.00,Wunderground v.1.15,2013-11-21 09:26:00,
2013-11-21 03:32:00,42.5,39.8,30.01,SSE,158,5.0,6.0,90,0.00,,,0.00,Wunderground v.1.15,2013-11-21 09:32:00,
2013-11-21 03:38:00,42.5,39.8,30.01,SSE,158,5.0,6.0,90,0.00,,,0.00,Wunderground v.1.15,2013-11-21 09:38:00,
2013-11-21 03:43:00,42.5,39.8,30.00,SSE,158,6.0,6.0,90,0.00,,,0.00,Wunderground v.1.15,2013-11-21 09:43:00,
2013-11-21 03:49:00,42.6,39.9,30.00,SSE,158,5.0,6.0,90,0.00,,,0.00,Wunderground v.1.15,2013-11-21 09:49:00,
2013-11-21 03:55:00,42.7,39.7,30.00,SSE,159,6.0,7.0,89,0.00,,,0.00,Wunderground v.1.15,2013-11-21 09:55:00,
2013-11-21 04:01:00,42.8,39.8,30.00,SSE,160,7.0,7.0,89,0.00,,,0.00,Wunderground v.1.15,2013-11-21 10:01:00,
2013-11-21 04:06:00,42.9,39.9,30.00,SSE,162,7.0,7.0,89,0.00,,,0.00,Wunderground v.1.15,2013-11-21 10:06:00,
2013-11-21 04:12:00,43.0,40.0,30.00,SSE,166,7.0,9.0,89,0.00,,,0.00,Wunderground v.1.15,2013-11-21 10:12:00,
2013-11-21 04:17:00,43.1,40.1,30.00,SSE,167,7.0,9.0,89,0.00,,,0.00,Wunderground v.1.15,2013-11-21 10:17:00,
2013-11-21 04:23:00,43.2,40.2,30.00,SSE,167,6.0,10.0,89,0.00,,,0.00,Wunderground v.1.15,2013-11-21 10:23:00,
2013-11-21 04:29:00,43.4,40.1,30.00,SSE,168,7.0,10.0,88,0.00,,,0.00,Wunderground v.1.15,2013-11-21 10:29:00,
2013-11-21 04:34:00,43.4,40.1,30.00,SSE,168,6.0,7.0,88,0.00,,,0.00,Wunderground v.1.15,2013-11-21 10:34:00,
2013-11-21 04:40:00,43.4,40.4,30.00,SSE,168,6.0,6.0,89,0.00,,,0.00,Wunderground v.1.15,2013-11-21 10:40:00,
2013-11-21 04:46:00,43.5,40.2,30.00,SSE,167,6.0,10.0,88,0.00,,,0.00,Wunderground v.1.15,2013-11-21 10:46:00,
2013-11-21 04:51:00,43.5,40.2,30.00,SSE,167,7.0,7.0,88,0.00,,,0.00,Wunderground v.1.15,2013-11-21 10:51:00,
2013-11-21 04:57:00,43.6,40.6,30.00,SSE,167,7.0,10.0,89,0.00,,,0.00,Wunderground v.1.15,2013-11-21 10:57:00,
2013-11-21 05:03:00,43.5,40.5,30.00,SSE,168,7.0,8.0,89,0.00,,,0.00,Wunderground v.1.15,2013-11-21 11:03:00,
2013-11-21 05:08:00,43.5,40.5,30.01,SSE,167,7.0,9.0,89,0.00,,,0.00,Wunderground v.1.15,2013-11-21 11:08:00,
2013-11-21 05:14:00,43.5,40.5,30.01,SSE,168,8.0,10.0,89,0.00,,,0.00,Wunderground v.1.15,2013-11-21 11:14:00,
2013-11-21 05:20:00,43.6,40.6,30.00,SSE,168,8.0,8.0,89,0.00,,,0.00,Wunderground v.1.15,2013-11-21 11:20:00,
2013-11-21 05:26:00,43.6,40.6,30.00,SSE,168,7.0,10.0,89,0.00,,,0.00,Wunderground v.1.15,2013-11-21 11:26:00,
2013-11-21 05:32:00,43.6,40.9,30.00,SSE,167,7.0,7.0,90,0.00,,,0.00,Wunderground v.1.15,2013-11-21 11:32:00,
2013-11-21 05:37:00,43.5,40.8,30.00,SSE,165,7.0,8.0,90,0.00,,,0.00,Wunderground v.1.15,2013-11-21 11:37:00,
2013-11-21 05:42:00,43.5,40.8,30.00,SSE,163,8.0,10.0,90,0.00,,,0.00,Wunderground v.1.15,2013-11-21 11:42:00,
2013-11-21 05:48:00,43.5,40.8,30.00,SSE,162,8.0,10.0,90,0.00,,,0.00,Wunderground v.1.15,2013-11-21 11:48:00,
2013-11-21 05:53:00,43.6,40.9,30.00,SSE,153,8.0,12.0,90,0.00,,,0.00,Wunderground v.1.15,2013-11-21 11:53:00,
2013-11-21 05:59:00,44.0,41.0,30.01,South,170,9.0,16.0,89,0.00,,,0.00,Wunderground v.1.15,2013-11-21 11:59:00,
2013-11-21 06:05:00,43.9,40.9,30.01,SSE,167,7.0,10.0,89,0.00,,,0.00,Wunderground v.1.15,2013-11-21 12:05:00,
2013-11-21 06:11:00,44.0,41.0,30.01,SSE,167,8.0,9.0,89,0.00,,,0.00,Wunderground v.1.15,2013-11-21 12:11:00,
2013-11-21 06:17:00,44.2,41.2,30.01,SSE,164,8.0,9.0,89,0.00,,,0.00,Wunderground v.1.15,2013-11-21 12:17:00,
2013-11-21 06:22:00,44.1,41.1,30.02,SSE,163,8.0,8.0,89,0.00,,,0.00,Wunderground v.1.15,2013-11-21 12:22:00,
2013-11-21 06:27:00,44.0,41.0,30.02,SSE,165,7.0,8.0,89,0.00,,,0.00,Wunderground v.1.15,2013-11-21 12:27:00,
2013-11-21 06:33:00,43.9,40.9,30.02,SSE,164,7.0,7.0,89,0.00,,,0.00,Wunderground v.1.15,2013-11-21 12:33:00,
2013-11-21 06:38:00,43.8,40.8,30.02,SSE,163,7.0,7.0,89,0.00,,,0.00,Wunderground v.1.15,2013-11-21 12:38:00,
2013-11-21 06:44:00,43.7,41.0,30.03,SSE,164,6.0,7.0,90,0.00,,,0.00,Wunderground v.1.15,2013-11-21 12:44:00,
2013-11-21 06:49:00,43.7,41.0,30.03,SSE,165,6.0,7.0,90,0.00,,,0.00,Wunderground v.1.15,2013-11-21 12:49:00,
2013-11-21 06:55:00,43.7,41.0,30.03,SSE,165,5.0,6.0,90,0.00,,,0.00,Wunderground v.1.15,2013-11-21 12:55:00,
2013-11-21 07:00:00,43.7,41.0,30.03,SSE,165,5.0,5.0,90,0.00,,,0.00,Wunderground v.1.15,2013-11-21 13:00:00,
2013-11-21 07:06:00,43.6,40.9,30.03,SSE,165,4.0,5.0,90,0.00,,,0.00,Wunderground v.1.15,2013-11-21 13:06:00,
2013-11-21 07:12:00,43.5,41.0,30.03,SSE,165,5.0,5.0,91,0.00,,,0.00,Wunderground v.1.15,2013-11-21 13:12:00,
2013-11-21 07:18:00,43.5,41.0,30.03,SSE,164,5.0,9.0,91,0.00,,,0.00,Wunderground v.1.15,2013-11-21 13:18:00,
2013-11-21 07:24:00,43.6,41.1,30.04,SSE,164,7.0,7.0,91,0.00,,,0.00,Wunderground v.1.15,2013-11-21 13:24:00,
2013-11-21 07:30:00,43.7,41.2,30.04,SSE,164,6.0,6.0,91,0.00,,,0.00,Wunderground v.1.15,2013-11-21 13:30:00,
2013-11-21 07:36:00,43.8,41.3,30.04,SSE,164,6.0,6.0,91,0.00,,,0.00,Wunderground v.1.15,2013-11-21 13:36:00,
2013-11-21 07:41:00,43.9,41.4,30.05,SSE,164,5.0,6.0,91,0.00,,,0.00,Wunderground v.1.15,2013-11-21 13:41:00,
2013-11-21 07:47:00,44.1,41.6,30.04,SSE,164,5.0,6.0,91,0.00,,,0.00,Wunderground v.1.15,2013-11-21 13:47:00,
2013-11-21 07:52:00,44.1,41.6,30.04,SSE,164,5.0,6.0,91,0.00,,,0.00,Wunderground v.1.15,2013-11-21 13:52:00,
2013-11-21 07:58:00,44.3,41.8,30.04,SSE,164,6.0,6.0,91,0.00,,,0.00,Wunderground v.1.15,2013-11-21 13:58:00,
2013-11-21 08:04:00,44.5,42.0,30.04,SSE,164,6.0,7.0,91,0.00,,,0.00,Wunderground v.1.15,2013-11-21 14:04:00,
2013-11-21 08:09:00,44.7,42.2,30.04,SSE,164,6.0,7.0,91,0.00,,,0.00,Wunderground v.1.15,2013-11-21 14:09:00,
2013-11-21 08:14:00,45.0,42.5,30.04,SSE,162,6.0,9.0,91,0.00,,,0.00,Wunderground v.1.15,2013-11-21 14:14:00,
2013-11-21 08:20:00,45.2,42.4,30.05,SSE,161,7.0,7.0,90,0.00,,,0.00,Wunderground v.1.15,2013-11-21 14:20:00,
2013-11-21 08:26:00,45.3,42.5,30.05,SSE,163,7.0,9.0,90,0.00,,,0.00,Wunderground v.1.15,2013-11-21 14:26:00,
2013-11-21 08:31:00,45.4,42.6,30.05,SSE,162,6.0,6.0,90,0.00,,,0.00,Wunderground v.1.15,2013-11-21 14:31:00,
2013-11-21 08:36:00,45.6,42.8,30.04,SSE,162,6.0,7.0,90,0.00,,,0.00,Wunderground v.1.15,2013-11-21 14:36:00,
2013-11-21 08:42:00,45.7,42.9,30.05,SSE,161,7.0,9.0,90,0.00,,,0.00,Wunderground v.1.15,2013-11-21 14:42:00,
2013-11-21 08:48:00,45.9,42.8,30.05,SSE,161,8.0,9.0,89,0.00,,,0.00,Wunderground v.1.15,2013-11-21 14:48:00,
2013-11-21 08:53:00,46.0,42.9,30.05,SSE,162,8.0,8.0,89,0.00,,,0.00,Wunderground v.1.15,2013-11-21 14:53:00,
2013-11-21 08:58:00,46.0,42.9,30.06,SSE,163,7.0,9.0,89,0.00,,,0.00,Wunderground v.1.15,2013-11-21 14:58:00,
2013-11-21 09:04:00,46.1,43.0,30.06,SSE,165,7.0,7.0,89,0.00,,,0.00,Wunderground v.1.15,2013-11-21 15:04:00,
2013-11-21 09:09:00,46.1,43.0,30.06,SSE,165,6.0,7.0,89,0.00,,,0.00,Wunderground v.1.15,2013-11-21 15:09:00,
2013-11-21 09:15:00,46.2,43.1,30.06,SSE,165,5.0,8.0,89,0.00,,,0.00,Wunderground v.1.15,2013-11-21 15:15:00,
2013-11-21 09:21:00,46.2,43.1,30.07,SSE,165,6.0,6.0,89,0.00,,,0.00,Wunderground v.1.15,2013-11-21 15:21:00,
2013-11-21 09:27:00,46.3,43.2,30.07,SSE,166,6.0,8.0,89,0.00,,,0.00,Wunderground v.1.15,2013-11-21 15:27:00,
2013-11-21 09:33:00,46.4,43.3,30.07,SSE,166,6.0,6.0,89,0.00,,,0.00,Wunderground v.1.15,2013-11-21 15:33:00,
2013-11-21 09:38:00,46.5,43.4,30.07,SSE,166,5.0,6.0,89,0.00,,,0.00,Wunderground v.1.15,2013-11-21 15:38:00,
2013-11-21 09:44:00,46.6,43.5,30.07,SSE,166,5.0,5.0,89,0.00,,,0.00,Wunderground v.1.15,2013-11-21 15:44:00,
2013-11-21 09:49:00,46.6,43.5,30.07,SSE,166,4.0,5.0,89,0.00,,,0.00,Wunderground v.1.15,2013-11-21 15:49:00,
2013-11-21 09:54:00,46.7,43.6,30.06,SSE,166,4.0,4.0,89,0.00,,,0.00,Wunderground v.1.15,2013-11-21 15:54:00,
2013-11-21 10:00:00,46.8,43.7,30.06,SSE,166,3.0,3.0,89,0.00,,,0.00,Wunderground v.1.15,2013-11-21 16:00:00,
2013-11-21 10:05:00,46.9,43.8,30.06,SSE,166,2.0,3.0,89,0.00,,,0.00,Wunderground v.1.15,2013-11-21 16:05:00,
2013-11-21 10:11:00,47.0,43.6,30.06,SSE,166,2.0,2.0,88,0.00,,,0.00,Wunderground v.1.15,2013-11-21 16:11:00,
2013-11-21 10:17:00,47.2,43.8,30.06,SSE,166,2.0,3.0,88,0.00,,,0.00,Wunderground v.1.15,2013-11-21 16:17:00,
2013-11-21 10:23:00,47.5,44.1,30.06,SSE,166,3.0,5.0,88,0.00,,,0.00,Wunderground v.1.15,2013-11-21 16:23:00,
2013-11-21 10:28:00,47.6,44.2,30.06,SSE,166,5.0,6.0,88,0.00,,,0.00,Wunderground v.1.15,2013-11-21 16:28:00,
2013-11-21 10:34:00,47.8,44.1,30.06,SSE,166,5.0,6.0,87,0.00,,,0.00,Wunderground v.1.15,2013-11-21 16:34:00,
2013-11-21 10:40:00,47.8,44.1,30.06,SSE,166,5.0,5.0,87,0.00,,,0.00,Wunderground v.1.15,2013-11-21 16:40:00,
2013-11-21 10:45:00,47.9,44.2,30.06,SSE,166,5.0,6.0,87,0.00,,,0.00,Wunderground v.1.15,2013-11-21 16:45:00,
2013-11-21 10:51:00,47.9,44.2,30.05,SSE,166,4.0,4.0,87,0.00,,,0.00,Wunderground v.1.15,2013-11-21 16:51:00,
2013-11-21 10:57:00,47.9,44.5,30.05,SSE,166,4.0,5.0,88,0.00,,,0.00,Wunderground v.1.15,2013-11-21 16:57:00,
2013-11-21 11:02:00,47.9,44.2,30.05,SSE,166,3.0,4.0,87,0.00,,,0.00,Wunderground v.1.15,2013-11-21 17:02:00,
2013-11-21 11:08:00,48.1,44.7,30.05,SSE,166,3.0,5.0,88,0.00,,,0.00,Wunderground v.1.15,2013-11-21 17:08:00,
2013-11-21 11:14:00,48.1,44.7,30.06,SSE,166,4.0,5.0,88,0.00,,,0.00,Wunderground v.1.15,2013-11-21 17:14:00,
2013-11-21 11:20:00,48.0,44.6,30.06,SSE,166,4.0,4.0,88,0.00,,,0.00,Wunderground v.1.15,2013-11-21 17:20:00,
2013-11-21 11:25:00,47.9,44.8,30.06,South,173,4.0,6.0,89,0.00,,,0.00,Wunderground v.1.15,2013-11-21 17:25:00,
2013-11-21 11:30:00,47.9,44.5,30.06,SSW,195,5.0,5.0,88,0.00,,,0.00,Wunderground v.1.15,2013-11-21 17:30:00,
2013-11-21 11:35:00,47.9,44.8,30.06,SSW,195,5.0,5.0,89,0.00,,,0.00,Wunderground v.1.15,2013-11-21 17:35:00,
2013-11-21 11:41:00,47.9,44.8,30.06,SSW,195,4.0,4.0,89,0.00,,,0.01,Wunderground v.1.15,2013-11-21 17:41:00,
2013-11-21 11:47:00,47.9,44.8,30.05,SSW,195,3.0,4.0,89,0.00,,,0.01,Wunderground v.1.15,2013-11-21 17:47:00,
2013-11-21 11:52:00,47.9,45.1,30.05,SSW,195,3.0,4.0,90,0.00,,,0.01,Wunderground v.1.15,2013-11-21 17:52:00,
2013-11-21 11:57:00,48.0,44.9,30.05,SSW,195,3.0,4.0,89,0.00,,,0.01,Wunderground v.1.15,2013-11-21 17:57:00,
2013-11-21 12:02:00,48.0,45.2,30.06,SSW,195,3.0,4.0,90,0.00,,,0.01,Wunderground v.1.15,2013-11-21 18:02:00,
2013-11-21 12:07:00,48.0,45.2,30.06,SSW,195,4.0,5.0,90,0.00,,,0.01,Wunderground v.1.15,2013-11-21 18:07:00,
2013-11-21 12:12:00,47.9,45.1,30.06,SSW,195,4.0,4.0,90,0.00,,,0.01,Wunderground v.1.15,2013-11-21 18:12:00,
2013-11-21 12:17:00,47.9,45.4,30.06,SSW,195,4.0,4.0,91,0.00,,,0.01,Wunderground v.1.15,2013-11-21 18:17:00,
2013-11-21 12:23:00,47.8,45.3,30.06,SSW,195,4.0,4.0,91,0.00,,,0.01,Wunderground v.1.15,2013-11-21 18:23:00,
2013-11-21 12:29:00,47.8,45.3,30.06,SSW,195,3.0,4.0,91,0.00,,,0.01,Wunderground v.1.15,2013-11-21 18:29:00,
2013-11-21 12:35:00,47.7,45.5,30.06,SSW,195,3.0,3.0,92,0.00,,,0.02,Wunderground v.1.15,2013-11-21 18:35:00,
2013-11-21 12:41:00,47.6,45.4,30.06,SSW,195,3.0,3.0,92,0.00,,,0.02,Wunderground v.1.15,2013-11-21 18:41:00,
2013-11-21 12:46:00,47.5,45.3,30.06,SSW,195,3.0,4.0,92,0.00,,,0.02,Wunderground v.1.15,2013-11-21 18:46:00,
2013-11-21 12:51:00,47.4,45.2,30.06,SSW,196,4.0,6.0,92,0.00,,,0.03,Wunderground v.1.15,2013-11-21 18:51:00,
2013-11-21 12:57:00,47.3,45.4,30.06,SSW,196,5.0,6.0,93,0.00,,,0.03,Wunderground v.1.15,2013-11-21 18:57:00,
2013-11-21 13:02:00,47.3,45.4,30.05,SSW,196,3.0,4.0,93,0.00,,,0.03,Wunderground v.1.15,2013-11-21 19:02:00,
2013-11-21 13:08:00,47.2,45.3,30.05,SSW,196,2.0,4.0,93,0.00,,,0.03,Wunderground v.1.15,2013-11-21 19:08:00,
2013-11-21 13:13:00,47.2,45.3,30.05,SSW,196,1.0,2.0,93,0.00,,,0.04,Wunderground v.1.15,2013-11-21 19:13:00,
2013-11-21 13:18:00,47.2,45.3,30.04,SSW,196,0.0,2.0,93,0.00,,,0.04,Wunderground v.1.15,2013-11-21 19:18:00,
2013-11-21 13:24:00,47.2,45.3,30.04,SSW,196,0.0,1.0,93,0.00,,,0.04,Wunderground v.1.15,2013-11-21 19:24:00,
2013-11-21 13:30:00,47.2,45.6,30.03,SSW,196,1.0,2.0,94,0.00,,,0.04,Wunderground v.1.15,2013-11-21 19:30:00,
2013-11-21 13:35:00,47.2,45.6,30.03,SSW,196,2.0,3.0,94,0.00,,,0.04,Wunderground v.1.15,2013-11-21 19:35:00,
2013-11-21 13:41:00,47.2,45.6,30.03,SSW,196,2.0,3.0,94,0.00,,,0.04,Wunderground v.1.15,2013-11-21 19:41:00,
2013-11-21 13:47:00,47.3,45.7,30.03,SSW,196,2.0,3.0,94,0.00,,,0.04,Wunderground v.1.15,2013-11-21 19:47:00,
2013-11-21 13:53:00,47.3,45.7,30.03,SSW,196,3.0,3.0,94,0.00,,,0.04,Wunderground v.1.15,2013-11-21 19:53:00,
2013-11-21 13:59:00,47.3,45.7,30.03,SSW,196,2.0,3.0,94,0.00,,,0.04,Wunderground v.1.15,2013-11-21 19:59:00,
2013-11-21 14:05:00,47.3,45.7,30.03,SSW,196,1.0,4.0,94,0.00,,,0.04,Wunderground v.1.15,2013-11-21 20:05:00,
2013-11-21 14:11:00,47.2,45.6,30.03,SSW,196,0.0,1.0,94,0.00,,,0.04,Wunderground v.1.15,2013-11-21 20:11:00,
2013-11-21 14:17:00,47.2,45.6,30.04,SSW,196,0.0,1.0,94,0.00,,,0.04,Wunderground v.1.15,2013-11-21 20:17:00,
2013-11-21 14:23:00,47.2,45.6,30.04,SSW,196,0.0,1.0,94,0.00,,,0.04,Wunderground v.1.15,2013-11-21 20:23:00,
2013-11-21 14:29:00,47.2,45.6,30.04,SSW,196,0.0,1.0,94,0.00,,,0.05,Wunderground v.1.15,2013-11-21 20:29:00,
2013-11-21 14:34:00,47.1,45.5,30.04,SSW,196,0.0,2.0,94,0.00,,,0.05,Wunderground v.1.15,2013-11-21 20:34:00,
2013-11-21 14:40:00,47.1,45.5,30.04,SSW,196,1.0,2.0,94,0.00,,,0.05,Wunderground v.1.15,2013-11-21 20:40:00,
2013-11-21 14:46:00,47.1,45.5,30.03,SSW,196,2.0,4.0,94,0.00,,,0.06,Wunderground v.1.15,2013-11-21 20:46:00,
2013-11-21 14:51:00,47.0,45.4,30.03,SSW,196,3.0,4.0,94,0.00,,,0.06,Wunderground v.1.15,2013-11-21 20:51:00,
2013-11-21 14:56:00,47.0,45.6,30.03,SSW,196,4.0,5.0,95,0.00,,,0.06,Wunderground v.1.15,2013-11-21 20:56:00,
2013-11-21 15:01:00,46.9,45.5,30.04,SSW,196,4.0,4.0,95,0.04,,,0.07,Wunderground v.1.15,2013-11-21 21:01:00,
2013-11-21 15:06:00,46.9,45.5,30.04,SSW,196,3.0,4.0,95,0.04,,,0.07,Wunderground v.1.15,2013-11-21 21:06:00,
2013-11-21 15:11:00,46.9,45.5,30.03,SSW,196,3.0,3.0,95,0.04,,,0.07,Wunderground v.1.15,2013-11-21 21:11:00,
2013-11-21 15:17:00,46.8,45.4,30.03,SSW,196,3.0,3.0,95,0.00,,,0.07,Wunderground v.1.15,2013-11-21 21:17:00,
2013-11-21 15:23:00,46.8,45.4,30.03,SSW,196,3.0,3.0,95,0.00,,,0.07,Wunderground v.1.15,2013-11-21 21:23:00,
2013-11-21 15:28:00,46.8,45.4,30.03,SSW,196,2.0,3.0,95,0.00,,,0.07,Wunderground v.1.15,2013-11-21 21:28:00,
2013-11-21 15:34:00,46.7,45.3,30.03,SSW,196,1.0,2.0,95,0.00,,,0.08,Wunderground v.1.15,2013-11-21 21:34:00,
2013-11-21 15:39:00,46.7,45.3,30.03,SSW,196,0.0,2.0,95,0.00,,,0.08,Wunderground v.1.15,2013-11-21 21:39:00,
2013-11-21 15:45:00,46.7,45.3,30.04,SSW,196,0.0,0.0,95,0.00,,,0.08,Wunderground v.1.15,2013-11-21 21:45:00,
2013-11-21 15:51:00,46.6,45.2,30.04,SSW,196,0.0,0.0,95,0.00,,,0.08,Wunderground v.1.15,2013-11-21 21:51:00,
2013-11-21 15:57:00,46.6,45.2,30.04,SSW,196,0.0,0.0,95,0.00,,,0.08,Wunderground v.1.15,2013-11-21 21:57:00,
2013-11-21 16:03:00,46.6,45.2,30.04,SSW,196,0.0,0.0,95,0.00,,,0.08,Wunderground v.1.15,2013-11-21 22:03:00,
2013-11-21 16:09:00,46.6,45.2,30.05,SSW,196,0.0,0.0,95,0.00,,,0.08,Wunderground v.1.15,2013-11-21 22:09:00,
2013-11-21 16:14:00,46.5,45.4,30.05,SSW,196,0.0,0.0,96,0.00,,,0.08,Wunderground v.1.15,2013-11-21 22:14:00,
2013-11-21 16:20:00,46.5,45.4,30.05,SSW,196,0.0,0.0,96,0.00,,,0.08,Wunderground v.1.15,2013-11-21 22:20:00,
2013-11-21 16:25:00,46.6,45.5,30.06,SSW,196,0.0,2.0,96,0.00,,,0.08,Wunderground v.1.15,2013-11-21 22:25:00,
2013-11-21 16:31:00,46.5,45.1,30.05,SSW,196,1.0,1.0,95,0.00,,,0.08,Wunderground v.1.15,2013-11-21 22:31:00,
2013-11-21 16:37:00,46.5,45.1,30.06,SSW,196,0.0,1.0,95,0.00,,,0.08,Wunderground v.1.15,2013-11-21 22:37:00,
2013-11-21 16:43:00,46.4,45.0,30.06,SSW,196,0.0,0.0,95,0.00,,,0.08,Wunderground v.1.15,2013-11-21 22:43:00,
2013-11-21 16:49:00,46.4,45.3,30.06,SSW,196,0.0,0.0,96,0.00,,,0.08,Wunderground v.1.15,2013-11-21 22:49:00,
2013-11-21 16:54:00,46.4,45.3,30.06,SSW,196,0.0,1.0,96,0.00,,,0.08,Wunderground v.1.15,2013-11-21 22:54:00,
2013-11-21 17:00:00,46.4,45.3,30.06,SSW,196,1.0,3.0,96,0.00,,,0.08,Wunderground v.1.15,2013-11-21 23:00:00,
2013-11-21 17:05:00,46.4,45.3,30.06,SSW,196,2.0,3.0,96,0.00,,,0.08,Wunderground v.1.15,2013-11-21 23:05:00,
2013-11-21 17:11:00,46.3,45.2,30.07,SSW,196,2.0,2.0,96,0.00,,,0.08,Wunderground v.1.15,2013-11-21 23:11:00,
2013-11-21 17:16:00,46.3,45.2,30.07,SSW,196,2.0,3.0,96,0.00,,,0.08,Wunderground v.1.15,2013-11-21 23:16:00,
2013-11-21 17:22:00,46.3,45.2,30.07,SSW,196,2.0,3.0,96,0.00,,,0.08,Wunderground v.1.15,2013-11-21 23:22:00,
2013-11-21 17:28:00,46.2,45.1,30.07,SSW,196,2.0,3.0,96,0.00,,,0.08,Wunderground v.1.15,2013-11-21 23:28:00,
2013-11-21 17:34:00,46.2,45.1,30.08,SSW,196,1.0,2.0,96,0.00,,,0.08,Wunderground v.1.15,2013-11-21 23:34:00,
2013-11-21 17:39:00,46.2,45.1,30.08,NNW,347,1.0,6.0,96,0.00,,,0.08,Wunderground v.1.15,2013-11-21 23:39:00,
2013-11-21 17:45:00,45.3,44.0,30.09,North,5,6.0,9.0,95,0.00,,,0.08,Wunderground v.1.15,2013-11-21 23:45:00,
2013-11-21 17:51:00,45.0,43.9,30.08,North,5,7.0,8.0,96,0.00,,,0.08,Wunderground v.1.15,2013-11-21 23:51:00,
2013-11-21 17:56:00,45.0,43.9,30.09,NNE,18,7.0,8.0,96,0.00,,,0.08,Wunderground v.1.15,2013-11-21 23:56:00,
2013-11-21 18:02:00,45.0,43.7,30.08,NNE,14,6.0,9.0,95,0.00,,,0.08,Wunderground v.1.15,2013-11-22 00:02:00,
2013-11-21 18:07:00,44.9,43.6,30.09,North,360,7.0,9.0,95,0.00,,,0.08,Wunderground v.1.15,2013-11-22 00:07:00,
2013-11-21 18:13:00,44.9,43.6,30.09,North,349,7.0,9.0,95,0.00,,,0.08,Wunderground v.1.15,2013-11-22 00:13:00,
2013-11-21 18:18:00,44.9,43.6,30.10,NNW,344,7.0,9.0,95,0.00,,,0.08,Wunderground v.1.15,2013-11-22 00:18:00,
2013-11-21 18:24:00,44.8,43.5,30.10,North,355,7.0,10.0,95,0.00,,,0.08,Wunderground v.1.15,2013-11-22 00:24:00,
2013-11-21 18:29:00,44.7,43.4,30.10,North,355,8.0,10.0,95,0.00,,,0.08,Wunderground v.1.15,2013-11-22 00:29:00,
2013-11-21 18:35:00,44.7,43.4,30.11,North,350,7.0,8.0,95,0.00,,,0.08,Wunderground v.1.15,2013-11-22 00:35:00,
2013-11-21 18:41:00,44.6,43.3,30.10,NNW,346,6.0,9.0,95,0.00,,,0.08,Wunderground v.1.15,2013-11-22 00:41:00,
2013-11-21 18:46:00,44.5,43.2,30.10,North,351,7.0,10.0,95,0.00,,,0.08,Wunderground v.1.15,2013-11-22 00:46:00,
2013-11-21 18:51:00,44.4,43.1,30.10,North,355,8.0,8.0,95,0.00,,,0.08,Wunderground v.1.15,2013-11-22 00:51:00,
2013-11-21 18:57:00,44.3,43.0,30.10,North,5,8.0,10.0,95,0.00,,,0.08,Wunderground v.1.15,2013-11-22 00:57:00,
2013-11-21 19:03:00,44.1,42.8,30.10,North,350,9.0,11.0,95,0.00,,,0.08,Wunderground v.1.15,2013-11-22 01:03:00,
2013-11-21 19:09:00,44.0,42.7,30.10,North,5,9.0,11.0,95,0.00,,,0.08,Wunderground v.1.15,2013-11-22 01:09:00,
2013-11-21 19:15:00,44.0,42.7,30.10,North,5,9.0,12.0,95,0.00,,,0.08,Wunderground v.1.15,2013-11-22 01:15:00,
2013-11-21 19:21:00,43.9,42.6,30.10,North,355,9.0,11.0,95,0.00,,,0.08,Wunderground v.1.15,2013-11-22 01:21:00,
2013-11-21 19:27:00,43.8,42.5,30.10,North,355,9.0,11.0,95,0.00,,,0.08,Wunderground v.1.15,2013-11-22 01:27:00,
2013-11-21 19:33:00,43.7,42.4,30.11,NNW,341,8.0,11.0,95,0.00,,,0.08,Wunderground v.1.15,2013-11-22 01:33:00,
2013-11-21 19:39:00,43.7,42.4,30.10,North,9,9.0,12.0,95,0.00,,,0.08,Wunderground v.1.15,2013-11-22 01:39:00,
2013-11-21 19:45:00,43.6,42.0,30.10,North,5,10.0,11.0,94,0.00,,,0.08,Wunderground v.1.15,2013-11-22 01:45:00,
2013-11-21 19:51:00,43.5,41.9,30.11,North,9,10.0,10.0,94,0.00,,,0.08,Wunderground v.1.15,2013-11-22 01:51:00,
2013-11-21 19:56:00,43.5,41.9,30.12,North,5,9.0,11.0,94,0.00,,,0.08,Wunderground v.1.15,2013-11-22 01:56:00,
2013-11-21 20:02:00,43.5,41.9,30.12,North,360,7.0,10.0,94,0.00,,,0.08,Wunderground v.1.15,2013-11-22 02:02:00,
2013-11-21 20:08:00,43.5,41.9,30.12,North,351,8.0,10.0,94,0.00,,,0.08,Wunderground v.1.15,2013-11-22 02:08:00,
2013-11-21 20:09:00,43.5,41.9,30.12,NNW,348,8.0,10.0,94,0.00,,,0.08,Wunderground v.1.15,2013-11-22 02:09:00,
2013-11-21 20:10:00,43.4,41.8,30.12,North,350,8.0,10.0,94,0.00,,,0.08,Wunderground v.1.15,2013-11-22 02:10:00,
2013-11-21 20:11:00,43.4,41.8,30.12,North,351,9.0,10.0,94,0.00,,,0.08,Wunderground v.1.15,2013-11-22 02:11:00,
2013-11-21 20:12:00,43.4,41.8,30.12,North,355,9.0,10.0,94,0.00,,,0.08,Wunderground v.1.15,2013-11-22 02:12:00,
2013-11-21 20:13:00,43.4,41.8,30.12,North,350,9.0,10.0,94,0.00,,,0.08,Wunderground v.1.15,2013-11-22 02:13:00,
2013-11-21 20:17:00,43.4,41.8,30.12,NNW,347,8.0,10.0,94,0.00,,,0.08,Wunderground v.1.15,2013-11-22 02:17:00,
2013-11-21 20:23:00,43.3,41.7,30.13,NNW,333,8.0,9.0,94,0.00,,,0.08,Wunderground v.1.15,2013-11-22 02:23:00,
2013-11-21 20:28:00,43.3,41.7,30.13,NNW,334,9.0,10.0,94,0.00,,,0.08,Wunderground v.1.15,2013-11-22 02:28:00,
2013-11-21 20:34:00,43.2,41.9,30.12,North,350,9.0,10.0,95,0.00,,,0.08,Wunderground v.1.15,2013-11-22 02:34:00,
2013-11-21 20:40:00,43.1,41.8,30.12,North,355,9.0,9.0,95,0.00,,,0.08,Wunderground v.1.15,2013-11-22 02:40:00,
2013-11-21 20:46:00,43.1,41.8,30.12,North,351,8.0,9.0,95,0.00,,,0.08,Wunderground v.1.15,2013-11-22 02:46:00,
2013-11-21 20:51:00,43.0,41.7,30.12,North,350,7.0,9.0,95,0.00,,,0.08,Wunderground v.1.15,2013-11-22 02:51:00,
2013-11-21 20:57:00,43.0,41.7,30.13,NNW,330,9.0,11.0,95,0.00,,,0.08,Wunderground v.1.15,2013-11-22 02:57:00,
2013-11-21 21:03:00,42.8,41.2,30.12,NNW,344,10.0,17.0,94,0.00,,,0.08,Wunderground v.1.15,2013-11-22 03:03:00,
2013-11-21 21:08:00,42.6,41.3,30.12,North,350,12.0,17.0,95,0.00,,,0.08,Wunderground v.1.15,2013-11-22 03:08:00,
2013-11-21 21:14:00,42.5,41.2,30.12,NNW,333,11.0,12.0,95,0.00,,,0.08,Wunderground v.1.15,2013-11-22 03:14:00,
2013-11-21 21:20:00,42.4,41.1,30.12,NNW,345,10.0,12.0,95,0.00,,,0.08,Wunderground v.1.15,2013-11-22 03:20:00,
2013-11-21 21:26:00,42.3,41.0,30.12,North,5,9.0,12.0,95,0.00,,,0.08,Wunderground v.1.15,2013-11-22 03:26:00,
2013-11-21 21:32:00,42.3,41.0,30.12,North,355,8.0,9.0,95,0.00,,,0.08,Wunderground v.1.15,2013-11-22 03:32:00,
2013-11-21 21:37:00,42.2,40.9,30.13,North,5,8.0,9.0,95,0.00,,,0.08,Wunderground v.1.15,2013-11-22 03:37:00,
2013-11-21 21:43:00,42.2,40.9,30.13,NNW,344,8.0,8.0,95,0.00,,,0.08,Wunderground v.1.15,2013-11-22 03:43:00,
2013-11-21 21:49:00,42.2,40.9,30.13,NNW,329,9.0,10.0,95,0.00,,,0.08,Wunderground v.1.15,2013-11-22 03:49:00,
2013-11-21 21:55:00,42.1,40.8,30.13,NNW,337,9.0,12.0,95,0.00,,,0.08,Wunderground v.1.15,2013-11-22 03:55:00,
2013-11-21 22:00:00,42.1,40.8,30.13,NNW,333,9.0,12.0,95,0.00,,,0.08,Wunderground v.1.15,2013-11-22 04:00:00,
2013-11-21 22:05:00,42.0,40.7,30.13,NNW,337,9.0,12.0,95,0.00,,,0.08,Wunderground v.1.15,2013-11-22 04:05:00,
2013-11-21 22:11:00,41.8,40.5,30.13,NNW,332,8.0,10.0,95,0.00,,,0.08,Wunderground v.1.15,2013-11-22 04:11:00,
2013-11-21 22:16:00,41.7,40.4,30.13,NNW,345,9.0,10.0,95,0.00,,,0.08,Wunderground v.1.15,2013-11-22 04:16:00,
2013-11-21 22:22:00,41.6,40.3,30.12,NNW,348,9.0,12.0,95,0.00,,,0.08,Wunderground v.1.15,2013-11-22 04:22:00,
2013-11-21 22:28:00,41.5,40.2,30.13,North,349,10.0,12.0,95,0.00,,,0.08,Wunderground v.1.15,2013-11-22 04:28:00,
2013-11-21 22:34:00,41.4,40.1,30.13,North,355,11.0,12.0,95,0.00,,,0.08,Wunderground v.1.15,2013-11-22 04:34:00,
2013-11-21 22:39:00,41.3,40.0,30.13,NNW,345,12.0,14.0,95,0.00,,,0.08,Wunderground v.1.15,2013-11-22 04:39:00,
2013-11-21 22:45:00,41.3,40.0,30.14,North,360,12.0,16.0,95,0.00,,,0.08,Wunderground v.1.15,2013-11-22 04:45:00,
2013-11-21 22:50:00,41.2,39.9,30.13,North,360,12.0,12.0,95,0.00,,,0.08,Wunderground v.1.15,2013-11-22 04:50:00,
2013-11-21 22:55:00,41.1,39.8,30.13,North,355,12.0,13.0,95,0.00,,,0.08,Wunderground v.1.15,2013-11-22 04:55:00,
2013-11-21 23:00:00,41.1,39.8,30.15,NNW,348,12.0,12.0,95,0.00,,,0.08,Wunderground v.1.15,2013-11-22 05:00:00,
2013-11-21 23:01:00,41.1,39.8,30.14,NNW,339,11.0,13.0,95,0.00,,,0.08,Wunderground v.1.15,2013-11-22 05:01:00,
2013-11-21 23:02:00,41.1,39.8,30.14,North,355,11.0,13.0,95,0.00,,,0.08,Wunderground v.1.15,2013-11-22 05:02:00,
2013-11-21 23:04:00,41.1,39.8,30.14,NNW,348,11.0,13.0,95,0.00,,,0.08,Wunderground v.1.15,2013-11-22 05:04:00,
2013-11-21 23:05:00,41.0,39.7,30.14,North,355,11.0,13.0,95,0.00,,,0.08,Wunderground v.1.15,2013-11-22 05:05:00,
2013-11-21 23:10:00,41.0,39.7,30.14,North,360,11.0,11.0,95,0.00,,,0.08,Wunderground v.1.15,2013-11-22 05:10:00,
2013-11-21 23:15:00,41.0,39.7,30.14,North,5,10.0,12.0,95,0.00,,,0.08,Wunderground v.1.15,2013-11-22 05:15:00,
2013-11-21 23:18:00,40.9,39.6,30.13,North,5,10.0,12.0,95,0.00,,,0.08,Wunderground v.1.15,2013-11-22 05:18:00,
2013-11-21 23:23:00,40.9,39.6,30.14,North,355,11.0,11.0,95,0.00,,,0.08,Wunderground v.1.15,2013-11-22 05:23:00,
2013-11-21 23:29:00,40.9,39.6,30.14,North,355,10.0,11.0,95,0.00,,,0.08,Wunderground v.1.15,2013-11-22 05:29:00,
2013-11-21 23:35:00,40.9,39.6,30.14,NNW,347,9.0,11.0,95,0.00,,,0.08,Wunderground v.1.15,2013-11-22 05:35:00,
2013-11-21 23:40:00,40.9,39.6,30.15,NNW,348,10.0,10.0,95,0.00,,,0.08,Wunderground v.1.15,2013-11-22 05:40:00,
2013-11-21 23:46:00,40.8,39.5,30.15,NNW,336,10.0,11.0,95,0.00,,,0.08,Wunderground v.1.15,2013-11-22 05:46:00,
2013-11-21 23:52:00,40.7,39.4,30.15,NNW,332,9.0,12.0,95,0.00,,,0.08,Wunderground v.1.15,2013-11-22 05:52:00,
2013-11-21 23:58:00,40.7,39.4,30.16,NNW,333,10.0,12.0,95,0.00,,,0.00,Wunderground v.1.15,2013-11-22 05:58:00,